Wind_Speed
36 36 36 35 35 34 33 31 32 34 35 35 36 37 39 40 40 40 40 38 36 34 31 29 27 26 25 24 23 23 21 21 21 21 21 22 22 23
39 39 39 39 38 37 36 35 34 35 35 36 36 38 41 42 42 42 41 40 37 35 33 30 28 26 25 24 23 22 21 20 20 19 20 20 21 22
42 42 42 43 42 41 39 38 37 35 35 37 37 38 41 43 44 44 43 41 39 37 35 32 30 27 26 24 23 21 20 19 19 19 19 19 20 21
44 45 45 46 46 45 44 42 41 39 37 36 38 39 42 44 46 45 44 43 41 39 37 34 31 29 27 24 23 21 19 18 18 17 17 18 18 19
47 47 48 49 48 49 49 48 46 44 41 39 39 41 43 45 47 47 46 45 43 42 40 37 34 31 28 26 24 22 20 18 17 17 17 17 17 18
48 49 50 51 51 52 53 53 51 49 47 44 42 42 44 46 47 48 47 46 45 44 42 39 36 33 30 28 25 23 21 19 17 16 16 16 16 17
49 50 52 53 54 55 56 57 56 54 52 49 47 44 46 47 48 48 48 48 47 45 44 42 39 36 32 29 26 24 22 20 18 17 16 15 16 16
48 50 52 53 55 57 59 60 60 59 57 55 53 48 47 48 49 50 49 49 48 47 46 44 41 38 35 31 28 25 23 21 19 17 16 15 15 15
46 48 50 52 54 57 60 62 63 63 62 60 58 54 50 50 49 50 50 50 50 50 49 46 44 41 37 33 30 27 24 21 19 18 16 16 16 16
44 45 47 49 52 55 59 63 65 66 65 64 62 60 57 54 51 51 52 52 53 53 51 48 46 43 40 36 32 28 25 23 21 19 17 16 15 15
41 42 44 47 49 52 56 60 65 67 69 68 67 66 62 58 55 54 54 53 53 53 52 49 47 45 42 38 34 31 28 25 22 20 18 17 16 15
36 38 41 43 46 50 53 57 61 66 69 71 70 69 66 63 58 54 53 53 53 52 51 50 49 47 44 41 37 34 30 27 24 22 20 18 17 16
30 31 34 37 41 46 49 53 57 62 66 70 72 71 69 66 62 57 54 53 53 52 52 52 51 50 47 43 40 37 33 29 26 24 22 19 18 17
23 23 25 29 34 40 45 49 53 58 62 66 70 71 70 67 63 60 57 54 53 52 54 55 53 51 49 47 43 40 36 32 29 26 23 21 19 18
15 15 18 22 27 34 39 43 48 52 56 60 64 67 69 68 64 60 58 57 54 51 53 55 55 53 51 49 46 42 38 34 31 28 25 23 21 19
9 9 13 17 23 29 34 39 43 46 50 54 59 63 65 66 64 60 57 56 55 52 52 52 54 53 51 49 47 44 41 37 33 30 27 24 22 20
4 4 8 13 20 26 31 36 40 42 43 48 53 58 61 62 63 61 58 55 54 52 50 49 50 52 52 51 48 45 41 38 34 31 29 26 24 22
2 3 6 11 16 21 26 31 37 40 41 44 49 53 56 58 59 58 57 55 53 52 50 50 50 50 50 50 47 44 41 38 35 32 30 27 25 24
1 3 6 9 13 18 22 27 32 36 40 42 46 49 52 56 58 57 56 54 53 52 50 49 48 46 47 47 45 44 41 39 36 33 31 29 27 25
1 2 5 9 12 16 19 23 28 33 37 40 44 48 51 54 56 57 56 54 52 50 51 48 46 44 45 47 46 45 44 40 37 35 33 30 27 25
3 3 5 7 11 14 18 21 25 31 35 40 43 45 49 53 55 55 56 55 51 49 50 47 44 43 44 48 48 46 43 41 38 35 33 30 28 26
5 6 6 8 10 13 16 20 23 28 32 37 41 44 48 52 53 54 55 54 52 50 48 47 45 44 43 43 44 44 43 41 38 35 32 30 29 28
6 7 8 9 11 13 15 19 22 26 30 35 39 43 46 50 52 53 53 54 53 51 49 48 46 44 43 41 41 42 42 40 38 35 32 31 30 28
Wind_Direction
254 253 250 246 242 240 237 235 232 227 223 220 218 216 215 214 212 212 211 211 210 209 209 209 209 210 212 213 213 214 216 220 223 225 228 231 234 237
255 253 250 247 243 240 238 235 230 227 224 219 216 213 212 211 211 211 211 210 209 208 207 207 207 207 209 209 209 211 214 217 221 224 228 232 235 238
257 254 250 247 244 242 240 238 233 228 223 221 216 212 211 209 210 210 210 209 208 206 206 206 205 205 206 208 209 211 213 217 221 224 227 231 235 238
258 254 251 247 243 241 239 238 236 231 225 221 218 213 211 210 209 209 210 208 208 206 205 205 205 206 207 209 211 212 214 216 221 224 228 232 236 241
259 255 251 247 243 240 238 236 235 232 227 222 218 215 213 211 209 209 209 209 208 207 205 205 206 207 208 210 213 214 216 217 222 226 229 234 238 241
260 256 251 246 243 239 236 235 233 231 228 225 220 217 214 211 210 210 210 209 209 208 207 207 208 209 210 211 213 216 217 219 223 228 232 236 238 241
262 257 252 247 242 238 235 233 231 230 228 226 222 219 216 212 211 211 211 210 209 209 209 208 208 209 210 212 213 216 218 220 224 229 235 238 241 243
264 259 253 248 243 238 234 232 229 227 226 225 223 220 217 214 213 212 212 211 210 209 210 210 209 210 211 212 214 215 218 220 224 230 235 239 242 244
266 261 255 249 243 238 233 230 227 225 224 223 223 220 217 215 213 213 212 211 211 210 210 210 210 210 211 212 214 216 218 221 225 231 238 241 244 246
267 262 256 249 243 237 232 228 225 224 222 222 221 220 219 215 213 214 214 213 212 212 211 211 211 212 213 214 215 217 219 222 226 233 239 243 245 247
269 263 256 249 242 236 230 227 224 222 220 220 220 219 218 216 213 213 213 213 214 212 212 213 213 214 215 216 217 218 221 224 228 235 240 243 245 247
271 263 255 247 240 234 228 224 221 219 219 218 218 218 217 215 213 212 213 213 213 212 212 213 214 215 216 217 218 220 222 225 230 236 241 245 246 246
275 265 254 243 235 230 225 220 217 217 217 216 216 216 216 215 214 214 213 213 213 212 211 213 214 215 216 217 219 221 223 226 230 236 242 244 246 248
277 264 250 236 228 223 218 215 214 214 214 214 215 215 215 215 214 214 215 214 213 213 212 212 214 215 216 217 219 222 224 226 230 234 240 242 245 247
281 260 239 227 218 212 209 210 210 210 211 212 213 213 214 214 213 213 214 215 213 213 213 214 214 215 216 218 219 221 224 226 229 232 237 240 243 245
289 253 229 216 208 204 204 203 203 205 208 209 210 211 212 213 212 212 213 214 213 213 213 214 214 214 216 218 219 221 223 226 228 231 236 238 240 243
299 242 211 204 199 199 199 199 200 201 204 205 207 209 209 211 212 212 212 213 213 213 214 214 213 214 215 217 218 220 222 225 228 231 234 237 239 242
294 221 196 193 192 192 194 196 198 199 201 202 203 204 206 207 209 210 211 213 212 213 214 213 213 214 215 217 218 220 222 224 227 229 232 236 238 240
251 187 188 190 191 192 195 197 200 201 200 200 200 200 201 203 204 206 208 209 211 211 211 211 211 213 214 214 216 218 221 223 225 227 231 235 238 240
235 195 194 196 196 197 199 201 202 202 201 199 198 197 198 200 201 203 206 207 207 209 209 210 211 212 212 211 213 215 218 221 223 226 230 233 237 240
243 215 200 198 198 198 199 200 201 202 202 201 199 198 198 198 199 201 203 205 206 207 208 209 209 210 210 210 211 214 217 220 222 225 228 232 235 238
233 217 207 205 202 197 197 198 199 201 201 201 201 200 199 198 199 200 202 203 204 205 205 206 206 207 208 209 210 213 216 219 221 224 227 231 234 236
235 223 215 208 206 202 199 198 198 198 198 200 202 202 200 199 199 199 200 202 202 202 203 204 204 204 206 208 208 210 214 217 219 222 225 230 234 238
Height
5724 5725 5728 5731 5734 5737 5740 5744 5748 5751 5756 5760 5766 5771 5777 5783 5789 5795 5801 5806 5811 5816 5821 5825 5829 5833 5837 5840 5842 5845 5847 5850 5852 5854 5856 5858 5860 5862
5711 5714 5716 5720 5723 5727 5730 5734 5738 5742 5746 5751 5756 5762 5768 5774 5780 5787 5793 5799 5805 5810 5815 5820 5824 5828 5832 5835 5838 5841 5843 5846 5848 5849 5851 5853 5855 5857
5697 5700 5703 5707 5711 5715 5719 5724 5728 5732 5737 5742 5747 5753 5759 5765 5772 5779 5786 5792 5798 5804 5809 5815 5819 5823 5828 5831 5834 5837 5839 5841 5843 5845 5847 5848 5850 5852
5682 5685 5689 5692 5697 5702 5707 5712 5717 5722 5727 5732 5738 5744 5750 5756 5763 5770 5778 5784 5791 5797 5803 5809 5814 5819 5823 5827 5830 5833 5835 5837 5839 5841 5842 5844 5845 5847
5665 5668 5672 5676 5682 5687 5693 5699 5705 5711 5716 5722 5728 5735 5741 5747 5754 5762 5769 5777 5784 5790 5796 5802 5808 5813 5818 5822 5825 5828 5831 5833 5835 5837 5838 5840 5841 5842
5647 5650 5654 5658 5664 5670 5677 5684 5691 5698 5705 5711 5718 5725 5731 5737 5745 5753 5761 5769 5776 5783 5790 5796 5802 5808 5812 5817 5820 5824 5826 5828 5830 5832 5834 5835 5836 5837
5628 5631 5634 5639 5645 5652 5660 5668 5675 5683 5692 5699 5707 5714 5720 5727 5736 5744 5752 5760 5768 5775 5782 5789 5795 5801 5806 5811 5815 5819 5822 5824 5826 5828 5829 5830 5831 5831
5609 5611 5614 5619 5626 5633 5641 5649 5659 5668 5677 5686 5695 5702 5710 5718 5726 5734 5743 5752 5760 5768 5774 5781 5788 5794 5800 5805 5809 5813 5817 5819 5821 5823 5824 5825 5826 5826
5590 5591 5594 5599 5605 5612 5621 5630 5640 5650 5661 5671 5681 5690 5699 5708 5716 5725 5733 5741 5750 5758 5765 5773 5780 5787 5793 5798 5803 5807 5811 5814 5816 5818 5819 5820 5820 5821
5572 5573 5575 5578 5584 5591 5600 5610 5621 5633 5645 5657 5668 5677 5685 5695 5705 5714 5722 5731 5740 5748 5757 5765 5772 5779 5786 5791 5796 5801 5805 5808 5811 5813 5814 5815 5815 5816
5555 5554 5556 5559 5564 5571 5580 5591 5603 5614 5626 5638 5651 5661 5672 5683 5692 5701 5710 5720 5729 5739 5749 5757 5765 5771 5778 5784 5789 5794 5799 5802 5805 5808 5809 5809 5810 5810
5538 5537 5538 5542 5546 5552 5562 5573 5585 5598 5609 5622 5634 5647 5658 5670 5680 5690 5700 5710 5720 5730 5740 5748 5755 5763 5770 5776 5782 5787 5792 5796 5799 5801 5803 5804 5804 5805
5525 5523 5523 5526 5530 5537 5547 5558 5570 5581 5592 5605 5618 5631 5644 5657 5668 5679 5690 5700 5711 5721 5730 5738 5745 5753 5761 5768 5774 5779 5785 5789 5792 5795 5797 5798 5799 5800
5515 5513 5512 5514 5519 5526 5535 5545 5555 5566 5579 5591 5604 5618 5632 5645 5657 5668 5679 5689 5699 5709 5718 5726 5734 5743 5751 5758 5765 5771 5777 5782 5786 5789 5791 5792 5793 5794
5509 5507 5507 5509 5513 5519 5527 5536 5545 5556 5568 5580 5593 5607 5619 5632 5644 5656 5667 5678 5688 5697 5707 5716 5725 5733 5742 5750 5757 5763 5769 5774 5778 5782 5785 5786 5787 5788
5506 5504 5504 5506 5510 5516 5522 5530 5540 5550 5560 5571 5582 5594 5606 5619 5633 5645 5657 5668 5679 5688 5697 5707 5716 5724 5733 5741 5748 5755 5761 5767 5771 5775 5778 5780 5781 5782
5506 5505 5505 5507 5511 5515 5521 5528 5536 5545 5554 5564 5574 5585 5597 5610 5623 5635 5647 5658 5670 5680 5689 5698 5706 5715 5723 5731 5739 5747 5753 5759 5764 5767 5771 5773 5774 5776
5508 5507 5507 5509 5512 5516 5521 5527 5534 5542 5550 5558 5567 5577 5589 5601 5614 5626 5638 5649 5660 5671 5680 5689 5698 5706 5715 5724 5732 5739 5746 5751 5756 5760 5763 5766 5767 5769
5510 5509 5510 5511 5513 5517 5521 5527 5532 5538 5546 5553 5562 5572 5582 5594 5606 5618 5630 5641 5652 5662 5672 5681 5690 5698 5707 5716 5724 5731 5738 5743 5748 5752 5756 5758 5760 5762
5511 5511 5512 5513 5515 5517 5521 5525 5530 5536 5543 5550 5558 5567 5577 5587 5599 5610 5622 5633 5643 5653 5663 5673 5682 5691 5699 5707 5714 5721 5727 5734 5740 5744 5747 5750 5753 5756
5512 5513 5513 5514 5516 5518 5521 5524 5529 5534 5540 5547 5555 5563 5572 5582 5593 5603 5614 5625 5635 5645 5656 5666 5675 5682 5689 5697 5705 5712 5719 5725 5731 5736 5740 5743 5746 5749
5512 5513 5514 5515 5516 5518 5521 5524 5528 5532 5538 5544 5551 5559 5567 5576 5586 5596 5607 5618 5628 5639 5649 5657 5665 5673 5682 5690 5698 5705 5712 5718 5723 5728 5733 5737 5739 5741
5512 5512 5513 5514 5516 5518 5520 5523 5526 5530 5535 5541 5547 5554 5562 5571 5580 5590 5600 5610 5621 5630 5640 5650 5658 5666 5675 5682 5690 5697 5703 5710 5715 5721 5725 5728 5731 5734